Flag for Iran Weather past 2 weeks in Mashhad, Iran

Now
86 °F

Sunny.


Feels Like: 83 °F
Forecast: 57 / 86 °F
Wind: 9 mph from North

Location: Mashhad Airport

Current Time: Aug 31, 2015 at 1:55:07 PM

Latest Report: Aug 31, 2015 at 1:00 PM


Visibility: 10 mi

Pressure: 30.07 "Hg (26.92 "Hg at 981m altitude)

Humidity: 12%

Dew point: 28 °F

Location of MashhadLocation

Historic Weather in Mashhad — Graph

°F

Mashhad temperature yesterday

Maximum temperature yesterday: 82 °F (at 3:30 PM)
Minimum temperature yesterday: 59 °F (at 6:00 AM)
Average temperature yesterday: 71 °F

Past Weeks' High & Low Weather Summary

 TemperatureHumidityPressure
High102 °F (Aug 17, 4:00 PM)67% (Aug 24, 3:00 AM)30.21 "Hg (Aug 24, 3:00 AM)
Low52 °F (Aug 24, 3:00 AM)4% (Aug 18, 1:30 PM)29.68 "Hg (Aug 21, 4:30 AM)
Average79 °F24%29.99 "Hg
* Reported Aug 16 12:30 PM — Aug 31 12:30 PM, Mashhad, Weather by CustomWeather, © 2015

Note: Actual official high and low records may vary slightly from our data, if they occured in-between our weather recording intervals... More about our weather records

Advertising

Mashhad weather history for previous 24 hours

 ConditionsComfort  
Time TempWeatherWind HumidityBarometerVisibility
12:30 PM
Mon, Aug 31
84 °FSunny.12 mph12%30.07 "Hg10 mi
12:00 PM82 °FSunny.14 mph12%30.09 "Hg10 mi
11:30 AM81 °FSunny.9 mph11%30.09 "Hg10 mi
11:00 AM81 °FSunny.7 mph11%30.09 "Hg10 mi
10:30 AM77 °FSunny.7 mph11%30.09 "Hg10 mi
10:00 AM75 °FSunny.7 mph13%30.09 "Hg10 mi
9:00 AM72 °FSunny.7 mph17%30.09 "Hg10 mi
8:30 AM70 °FSunny.5 mph18%30.09 "Hg10 mi
8:00 AM66 °FSunny.5 mph21%30.09 "Hg10 mi
7:30 AM64 °FClear.5 mph22%30.09 "Hg10 mi
7:00 AM63 °FClear.5 mph20%30.07 "Hg10 mi
6:30 AM57 °FClear.No wind29%30.07 "Hg10 mi
6:00 AM57 °FClear.No wind31%30.07 "Hg10 mi
5:30 AM59 °FClear.No wind29%30.07 "Hg10 mi
5:00 AM59 °FClear.No wind27%30.07 "Hg10 mi
4:30 AM59 °FClear.5 mph29%30.07 "Hg10 mi
4:00 AM59 °FClear.No wind31%30.07 "Hg10 mi
3:30 AM57 °FClear.No wind29%30.07 "Hg10 mi
3:00 AM57 °FClear.No wind27%30.07 "Hg10 mi
2:30 AM59 °FClear.5 mph23%30.07 "Hg10 mi
2:00 AM63 °FClear.5 mph20%30.07 "Hg10 mi
1:30 AM64 °FClear.5 mph19%30.07 "Hg10 mi
1:00 AM64 °FClear.7 mph19%30.07 "Hg10 mi
12:00 AM66 °FClear.5 mph17%30.09 "Hg10 mi
11:30 PM
Sun, Aug 30
66 °FClear.7 mph15%30.09 "Hg10 mi
11:00 PM68 °FClear.7 mph14%30.09 "Hg10 mi
10:30 PM68 °FClear.7 mph14%30.09 "Hg10 mi
10:00 PM68 °FClear.7 mph13%30.09 "Hg10 mi
9:30 PM68 °FClear.9 mph13%30.09 "Hg10 mi
9:00 PM70 °FClear.9 mph12%30.09 "Hg10 mi
8:30 PM72 °FSunny.12 mph13%30.09 "Hg10 mi
8:00 PM73 °FSunny.9 mph11%30.07 "Hg10 mi
7:30 PM75 °FSunny.9 mph10%30.07 "Hg10 mi
7:00 PM77 °FSunny.12 mph9%30.07 "Hg10 mi
6:30 PM79 °FSunny.7 mph8%30.07 "Hg10 mi
6:00 PM81 °FSunny.12 mph8%30.07 "Hg10 mi
5:30 PM82 °FSunny.5 mph8%30.07 "Hg10 mi
5:00 PM82 °FSunny.12 mph7%30.07 "Hg10 mi
4:30 PM82 °FSunny.7 mph8%30.07 "Hg10 mi
4:00 PM82 °FSunny.12 mph8%30.09 "Hg10 mi
3:30 PM82 °FSunny.5 mph8%30.09 "Hg10 mi
3:00 PM81 °FSunny.7 mph9%30.09 "Hg10 mi
2:30 PM81 °FSunny.5 mph9%30.12 "Hg10 mi
2:00 PM81 °FSunny.12 mph10%30.12 "Hg10 mi
1:30 PM81 °FSunny.12 mph9%30.12 "Hg10 mi
Weather by CustomWeather, © 2015

See weather overviewHow to use our weather pages